EW7347 Weather Reports


time (UTC)temp
C
wind
direction
speed
KPH
gust
KPH
rain 1hr
cm
rain 24hr
cm
rain mn
cm
humidity
%
barometer
mb
20260507133057 16 233 0.0 0.0 0.00 0.00 0.00 46 1014.0
20260507132540 16 252 0.0 0.0 0.00 0.00 0.00 46 1014.1
20260507132024 16 251 0.0 0.0 0.00 0.00 0.00 45 1014.2
20260507130214 16 214 0.0 0.0 0.00 0.00 0.00 48 1014.2
20260507125102 17 88 0.0 0.0 0.00 0.00 0.00 44 1014.2
20260507124558 17 190 0.0 0.0 0.00 0.00 0.00 42 1014.2
20260507124046 18 123 0.0 0.0 0.00 0.00 0.00 42 1014.2
20260507122931 17 275 0.0 0.0 0.00 0.00 0.00 43 1014.2
20260507122433 17 228 0.0 1.6 0.00 0.00 0.00 43 1014.3
20260507121914 17 198 0.0 0.0 0.00 0.00 0.00 46 1014.3
20260507121407 17 138 0.0 0.0 0.00 0.00 0.00 45 1014.3
20260507120910 17 242 0.0 0.0 0.00 0.00 0.00 45 1014.3
20260507120352 17 262 0.0 0.0 0.00 0.00 0.00 48 1014.3
20260507115846 17 180 0.0 8.0 0.00 0.00 0.00 49 1014.4
20260507114737 17 104 0.0 0.0 0.00 0.00 0.00 48 1014.4
20260507114245 17 126 0.0 0.0 0.00 0.00 0.00 48 1014.5
20260507113052 17 182 0.0 4.8 0.00 0.00 0.00 48 1014.6
20260507111934 16 195 0.0 0.0 0.00 0.00 0.00 51 1014.5
20260507110802 16 167 0.0 1.6 0.00 0.00 0.00 54 1014.7
20260507110251 16 197 0.0 0.0 0.00 0.00 0.00 55 1014.7
20260507105737 15 259 0.0 1.6 0.00 0.00 0.00 57 1014.7
20260507105234 15 78 0.0 0.0 0.00 0.00 0.00 54 1014.7
20260507104720 15 169 0.0 0.0 0.00 0.00 0.00 52 1014.7
20260507104214 16 178 0.0 0.0 0.00 0.00 0.00 54 1014.7
20260507102435 15 252 0.0 0.0 0.00 0.00 0.00 54 1014.8
20260507101930 15 126 0.0 0.0 0.00 0.00 0.00 59 1014.8
20260507101416 15 198 0.0 0.0 0.00 0.00 0.00 60 1014.9
20260507100915 15 207 0.0 0.0 0.00 0.00 0.00 61 1014.9
20260507100417 15 205 0.0 3.2 0.00 0.00 0.00 59 1014.9
20260507095909 15 244 0.0 0.0 0.00 0.00 0.00 59 1014.8
20260507095409 15 175 0.0 0.0 0.00 0.00 0.00 60 1014.8
20260507094900 14 177 0.0 0.0 0.00 0.00 0.00 58 1014.9
20260507094346 15 187 0.0 0.0 0.00 0.00 0.00 61 1014.9
20260507093856 14 138 0.0 1.6 0.00 0.00 0.00 60 1014.9
20260507092738 14 209 0.0 0.0 0.00 0.00 0.00 64 1014.9
20260507092226 13 96 0.0 0.0 0.00 0.00 0.00 66 1014.9
20260507091726 13 232 0.0 0.0 0.00 0.00 0.00 67 1014.9
20260507091216 13 54 0.0 0.0 0.00 0.00 0.00 69 1015.0
20260507090708 13 247 0.0 0.0 0.00 0.00 0.00 68 1014.9
20260507085546 12 244 0.0 0.0 0.00 0.00 0.00 72 1015.1
20260507085035 12 198 0.0 0.0 0.00 0.00 0.00 74 1015.1
20260507084516 11 189 0.0 1.6 0.00 0.00 0.00 75 1015.1
20260507084017 11 192 0.0 0.0 0.00 0.00 0.00 76 1015.2
20260507083509 11 263 0.0 0.0 0.00 0.00 0.00 76 1015.2
20260507082956 11 261 0.0 0.0 0.00 0.00 0.00 76 1015.2
20260507082449 10 331 0.0 0.0 0.00 0.00 0.00 76 1015.3
20260507081956 10 290 0.0 0.0 0.00 0.00 0.00 77 1015.2
20260507081441 10 136 0.0 0.0 0.00 0.00 0.00 79 1015.2
20260507080931 10 229 0.0 0.0 0.00 0.00 0.00 80 1015.3
20260507080429 10 259 0.0 0.0 0.00 0.00 0.00 80 1015.2
20260507075937 9 229 0.0 0.0 0.00 0.00 0.00 81 1015.2
20260507075442 9 202 0.0 0.0 0.00 0.00 0.00 82 1015.2
20260507074925 9 254 0.0 1.6 0.00 0.00 0.00 82 1015.2
20260507074412 9 184 0.0 0.0 0.00 0.00 0.00 83 1015.2
20260507073859 8 183 0.0 0.0 0.00 0.00 0.00 83 1015.2
20260507073347 8 183 0.0 0.0 0.00 0.00 0.00 83 1015.1
20260507072228 8 190 0.0 0.0 0.00 0.00 0.00 84 1015.1
20260507071732 8 190 0.0 0.0 0.00 0.00 0.00 84 1015.2
20260507070602 8 146 0.0 0.0 0.00 0.00 0.00 83 1015.0
20260507065447 8 182 0.0 4.8 0.00 0.00 0.00 83 1015.0
20260507064951 8 210 0.0 0.0 0.00 0.00 0.00 83 1015.0
20260507064445 8 69 0.0 0.0 0.00 0.00 0.00 83 1015.0
20260507063929 8 177 0.0 0.0 0.00 0.00 0.00 83 1014.8
20260507063424 8 130 0.0 1.6 0.00 0.00 0.00 83 1014.7
20260507062924 8 153 0.0 0.0 0.00 0.00 0.00 83 1014.7
20260507061811 8 136 0.0 0.0 0.00 0.00 0.00 84 1014.6
20260507061316 7 117 0.0 0.0 0.00 0.00 0.00 84 1014.6
20260507060802 7 9 0.0 0.0 0.00 0.00 0.00 85 1014.6
20260507060243 7 138 0.0 0.0 0.00 0.00 0.00 85 1014.6
20260507055744 7 140 0.0 0.0 0.00 0.00 0.00 85 1014.6
20260507055236 7 142 0.0 0.0 0.00 0.00 0.00 85 1014.5
20260507054101 7 142 0.0 0.0 0.00 0.00 0.00 85 1014.5
20260507052923 7 179 0.0 0.0 0.00 0.00 0.00 85 1014.6
20260507052410 7 189 0.0 0.0 0.00 0.00 0.00 86 1014.6
20260507051920 7 191 0.0 0.0 0.00 0.00 0.00 86 1014.6
20260507051412 7 120 0.0 0.0 0.00 0.00 0.00 86 1014.6
20260507050907 7 120 0.0 0.0 0.00 0.00 0.00 86 1014.6
20260507050410 7 120 0.0 0.0 0.00 0.00 0.00 87 1014.6
20260507045908 7 120 0.0 0.0 0.00 0.00 0.00 86 1014.6
20260507045359 7 120 0.0 0.0 0.00 0.00 0.00 86 1014.6
20260507044854 7 120 0.0 0.0 0.00 0.00 0.00 86 1014.5
20260507043744 7 120 0.0 0.0 0.00 0.00 0.00 85 1014.4
20260507043243 7 120 0.0 0.0 0.00 0.00 0.00 85 1014.3
20260507042748 7 124 0.0 0.0 0.00 0.00 0.00 85 1014.3
20260507042231 7 153 0.0 0.0 0.00 0.00 0.00 84 1014.4
20260507041712 7 186 0.0 0.0 0.00 0.00 0.00 84 1014.4
20260507041210 7 186 0.0 0.0 0.00 0.00 0.00 85 1014.4
20260507040704 7 186 0.0 0.0 0.00 0.00 0.00 84 1014.4
20260507035556 7 117 0.0 0.0 0.00 0.00 0.00 85 1014.4
20260507035103 7 173 0.0 0.0 0.00 0.00 0.00 85 1014.4
20260507034548 7 173 0.0 0.0 0.00 0.00 0.00 84 1014.4
20260507033431 7 178 0.0 0.0 0.00 0.00 0.00 85 1014.4
20260507032915 7 179 0.0 0.0 0.00 0.00 0.00 85 1014.4
20260507032415 7 178 0.0 0.0 0.00 0.00 0.00 85 1014.4
20260507031234 7 174 0.0 0.0 0.00 0.00 0.00 85 1014.4
20260507030716 7 173 0.0 0.0 0.00 0.00 0.00 85 1014.5
20260507030217 7 173 0.0 0.0 0.00 0.00 0.00 85 1014.5
20260507025721 7 190 0.0 0.0 0.00 0.00 0.00 85 1014.4
20260507025230 7 189 0.0 0.0 0.00 0.00 0.00 85 1014.5
20260507024112 7 189 0.0 0.0 0.00 0.00 0.00 85 1014.5
20260507022943 7 169 0.0 0.0 0.00 0.00 0.00 85 1014.5
20260507022430 7 175 0.0 0.0 0.00 0.00 0.00 85 1014.5
20260507021928 7 173 0.0 0.0 0.00 0.00 0.00 85 1014.5
20260507021411 7 173 0.0 0.0 0.00 0.00 0.00 85 1014.5
20260507020919 7 175 0.0 0.0 0.00 0.00 0.00 84 1014.5
20260507020407 7 153 0.0 0.0 0.00 0.00 0.00 85 1014.4
20260507015917 7 153 0.0 0.0 0.00 0.00 0.00 85 1014.4
20260507014730 7 153 0.0 0.0 0.00 0.00 0.00 85 1014.4
20260507014240 7 152 0.0 0.0 0.00 0.00 0.00 85 1014.5
20260507013748 7 153 0.0 0.0 0.00 0.00 0.00 85 1014.5
20260507012640 7 145 0.0 0.0 0.00 0.00 0.00 85 1014.4
20260507011532 7 145 0.0 0.0 0.00 0.00 0.00 85 1014.6
20260507011012 7 146 0.0 0.0 0.00 0.00 0.00 85 1014.5
20260507010518 7 134 0.0 0.0 0.00 0.00 0.00 86 1014.6
20260507010027 7 134 0.0 0.0 0.00 0.00 0.00 86 1014.6
20260507005513 7 134 0.0 0.0 0.00 0.00 0.00 86 1014.7
20260507004954 7 153 0.0 0.0 0.00 0.00 0.00 86 1014.6
20260507004459 7 155 0.0 0.0 0.00 0.00 0.00 86 1014.6
20260507003940 7 155 0.0 0.0 0.00 0.00 0.00 86 1014.6
20260507002206 7 155 0.0 0.0 0.00 0.00 0.00 86 1014.7
20260507001707 7 155 0.0 0.0 0.00 0.00 0.00 86 1014.8
20260507001210 7 155 0.0 0.0 0.00 0.00 0.00 86 1014.8
20260507000050 7 17 0.0 0.0 0.00 0.00 0.00 86 1014.8
20260506235600 7 44 0.0 0.0 0.00 0.00 0.00 86 1014.8
20260506235100 7 312 0.0 0.0 0.00 0.00 0.00 86 1014.8
20260506234606 7 180 0.0 0.0 0.00 0.00 0.00 86 1014.7
20260506234109 7 169 0.0 0.0 0.00 0.00 0.00 86 1014.7
20260506233001 7 173 0.0 0.0 0.00 0.00 0.00 86 1014.6
20260506232504 7 173 0.0 0.0 0.00 0.00 0.00 86 1014.6
20260506231954 7 275 0.0 0.0 0.00 0.00 0.00 86 1014.7
20260506225557 6 311 0.0 0.0 0.00 0.00 0.00 87 1014.7
20260506224404 6 311 0.0 0.0 0.00 0.00 0.00 86 1014.7
20260506223230 6 311 0.0 0.0 0.00 0.00 0.00 86 1014.7
20260506222737 6 311 0.0 0.0 0.00 0.00 0.00 86 1014.6
20260506222246 6 311 0.0 0.0 0.00 0.00 0.00 86 1014.5
20260506221743 6 304 0.0 0.0 0.00 0.00 0.00 85 1014.5
20260506221245 6 54 0.0 0.0 0.00 0.00 0.00 85 1014.5
20260506220740 6 53 0.0 0.0 0.00 0.00 0.00 85 1014.4
20260506220250 6 30 0.0 0.0 0.00 0.00 0.00 85 1014.4
20260506215738 6 76 0.0 0.0 0.00 0.00 0.00 85 1014.4
20260506215243 6 67 0.0 0.0 0.00 0.00 0.00 84 1014.4
20260506214727 7 101 0.0 0.0 0.00 0.00 0.00 84 1014.2
20260506214220 7 169 0.0 0.0 0.00 0.00 0.00 84 1014.3
20260506213712 7 254 0.0 0.0 0.00 0.00 0.00 83 1014.3
20260506213211 7 255 0.0 0.0 0.00 0.00 0.00 83 1014.2
20260506212700 7 209 0.0 1.6 0.00 0.00 0.00 83 1014.1
20260506212151 7 106 0.0 1.6 0.00 0.00 0.00 83 1014.2
20260506211633 7 63 0.0 0.0 0.00 0.00 0.00 82 1014.2
20260506211129 7 192 0.0 0.0 0.00 0.00 0.00 82 1014.3
20260506210624 7 264 0.0 3.2 0.00 0.00 0.00 82 1014.2
20260506210132 7 50 0.0 1.6 0.00 0.00 0.00 81 1014.1
20260506205640 7 180 0.0 1.6 0.00 0.00 0.00 81 1014.1
20260506205145 7 191 0.0 0.0 0.00 0.00 0.00 81 1014.1
20260506204634 7 349 0.0 0.0 0.00 0.00 0.00 81 1014.1
20260506202907 8 20 0.0 3.2 0.00 0.00 0.00 81 1014.0
20260506202349 8 333 0.0 0.0 0.00 0.00 0.00 80 1014.0
20260506201831 8 317 0.0 0.0 0.00 0.00 0.00 81 1013.9
20260506201341 8 60 0.0 0.0 0.00 0.00 0.00 81 1014.0
20260506200842 8 107 0.0 0.0 0.00 0.00 0.00 81 1013.9
20260506200324 8 62 0.0 0.0 0.00 0.00 0.00 81 1013.9
20260506195811 8 73 0.0 0.0 0.00 0.00 0.00 81 1013.9
20260506195256 8 350 0.0 0.0 0.00 0.00 0.00 80 1013.8
20260506194748 8 281 0.0 0.0 0.00 0.00 0.00 80 1013.7
20260506193009 8 82 0.0 1.6 0.00 0.00 0.00 79 1013.6
20260506192503 8 148 0.0 0.0 0.00 0.00 0.00 78 1013.6
20260506190729 8 137 0.0 0.0 0.00 0.00 0.00 76 1013.6
20260506190216 8 148 0.0 3.2 0.00 0.00 0.00 75 1013.6
20260506185704 9 97 0.0 3.2 0.00 0.00 0.00 74 1013.6
20260506185203 9 71 0.0 0.0 0.00 0.00 0.00 73 1013.5
20260506184658 9 0 0.0 0.0 0.00 0.00 0.00 73 1013.5
20260506184139 10 71 0.0 1.6 0.00 0.00 0.00 72 1013.5
20260506183642 10 271 0.0 0.0 0.00 0.00 0.00 72 1013.6
20260506183133 10 75 0.0 0.0 0.00 0.00 0.00 71 1013.4
20260506182636 10 79 0.0 0.0 0.00 0.00 0.00 72 1013.4
20260506182124 10 347 0.0 0.0 0.00 0.00 0.00 72 1013.4
20260506181627 10 331 0.0 0.0 0.00 0.00 0.00 72 1013.4
20260506181128 10 73 0.0 0.0 0.00 0.00 0.00 72 1013.4
20260506180622 10 134 0.0 0.0 0.00 0.00 0.00 71 1013.3
20260506180119 10 81 0.0 4.8 0.00 0.00 0.00 70 1013.3
20260506174345 11 59 0.0 4.8 0.00 0.00 0.00 69 1013.1
20260506173827 11 350 0.0 6.4 0.00 0.00 0.00 69 1013.1
20260506173323 11 311 0.0 6.4 0.00 0.00 0.00 67 1013.1
20260506172827 11 321 0.0 6.4 0.00 0.00 0.00 66 1012.9
20260506172321 11 297 0.0 1.6 0.00 0.00 0.00 66 1013.0
20260506171826 11 318 0.0 6.4 0.00 0.00 0.00 66 1013.0
20260506171325 11 109 0.0 6.4 0.00 0.00 0.00 66 1012.9
20260506170207 11 205 0.0 3.2 0.00 0.00 0.00 66 1012.9
20260506165020 11 283 0.0 6.4 0.00 0.00 0.00 66 1012.8
20260506164514 11 132 0.0 4.8 0.00 0.00 0.00 65 1012.8
20260506164008 11 132 0.0 4.8 0.00 0.00 0.00 63 1012.9
20260506163459 11 262 0.0 1.6 0.00 0.00 0.00 63 1012.7
20260506163001 11 355 0.0 0.0 0.00 0.00 0.00 63 1012.7
20260506162502 11 252 0.0 8.0 0.00 0.00 0.00 64 1012.7
20260506161948 11 265 0.0 8.0 0.00 0.00 0.00 63 1012.7
20260506160825 12 278 0.0 8.0 0.00 0.00 0.00 62 1012.7
20260506160334 12 182 0.0 4.8 0.00 0.00 0.00 61 1012.6
20260506155831 12 284 0.0 3.2 0.00 0.00 0.00 60 1012.7
20260506155317 12 355 0.0 3.2 0.00 0.00 0.00 58 1012.6
20260506154147 12 13 0.0 0.0 0.00 0.00 0.00 59 1012.6
20260506153656 12 281 0.0 3.2 0.00 0.00 0.00 59 1012.6
20260506153138 12 88 0.0 0.0 0.00 0.00 0.00 58 1012.6
20260506152640 12 350 0.0 3.2 0.00 0.00 0.00 56 1012.6
20260506152137 12 252 0.0 0.0 0.00 0.00 0.00 53 1012.6
20260506151643 12 346 0.0 4.8 0.00 0.00 0.00 55 1012.7
20260506151149 13 92 0.0 0.0 0.00 0.00 0.00 54 1012.6
20260506150657 13 53 0.0 0.0 0.00 0.00 0.00 52 1012.7
20260506145539 13 287 0.0 0.0 0.00 0.00 0.00 53 1012.6
20260506145042 13 297 0.0 0.0 0.00 0.00 0.00 53 1012.6
20260506144529 13 15 0.0 1.6 0.00 0.00 0.00 52 1012.6
20260506143357 13 303 0.0 0.0 0.00 0.00 0.00 49 1012.5
20260506142905 13 310 0.0 0.0 0.00 0.00 0.00 50 1012.6
20260506142407 13 318 0.0 0.0 0.00 0.00 0.00 49 1012.5
20260506141905 13 5 0.0 0.0 0.00 0.00 0.00 51 1012.5
20260506141349 13 263 0.0 0.0 0.00 0.00 0.00 53 1012.6
20260506140859 13 270 0.0 0.0 0.00 0.00 0.00 52 1012.7
20260506140340 12 66 0.0 0.0 0.00 0.00 0.00 54 1012.7
20260506135823 12 47 0.0 0.0 0.00 0.00 0.00 53 1012.7
20260506135311 12 84 0.0 0.0 0.00 0.00 0.00 55 1012.7
20260506134146 12 347 0.0 0.0 0.00 0.00 0.00 55 1012.9